[[{"header":{"parameterUnit":"m.s-1","parameterCategory":1,"la1":30.2991,"la2":30.254,"lo1":-89.0895,"lo2":-89.0444,"dy":0.0017,"dx":0.0017,"nx":28,"ny":28,"refTime":"2025-04-17T09:00:00:Z","depth":0,"parameterNumber":2,"parameterNumberName":"U-component_of_WINDS"},"data":[0,0,0,0,0,0,0,0,0,0,0,0,0,0,0,0,0,0,0,0,0,0,0,0,0,0,0,0,0,0,0,0,0,0,0,0,0,0,0,0,0,0,0,0,0,0,0,0,0,0,0,0,0,0,0,0,0,0,-4.0283,-4.0285,0,-4.0405,-4.0406,-4.0407,-4.0402,-4.04,-4.0398,-4.0396,-4.0519,-4.0524,-4.0529,0,0,0,0,0,0,0,0,0,0,0,0,0,-4.0046,-4.005,-4.0283,-4.0285,-4.0286,-4.0404,-4.0406,-4.0408,-4.0402,-4.04,-4.0398,-4.0396,-4.0518,-4.0523,-4.0529,0,0,0,0,0,0,0,0,0,0,0,0,0,-4.0156,-4.0052,-4.0283,-4.0298,-4.03,-4.0404,-4.0406,-4.0408,-4.0402,-4.04,-4.0397,-4.0395,-4.0516,-4.0523,-4.053,-4.0627,0,0,-4.0552,-4.0555,0,0,0,0,0,0,0,0,-4.015,-4.0165,-4.0294,-4.0297,-4.03,-4.0385,-4.0367,-4.0481,-4.0403,-4.0363,-4.0396,-4.0393,-4.0477,-4.0487,-4.0515,-4.0633,-4.0638,-4.0553,-4.0557,-4.0561,-4.0563,0,0,0,0,0,0,0,-4.0142,-4.016,-4.0331,-4.0296,-4.0299,-4.0298,-4.0311,-4.0389,-4.0433,-4.0367,-4.0367,-4.0381,-4.0478,-4.0508,-4.0518,-4.064,-4.0553,-4.0559,-4.0564,-4.0567,-4.0843,-4.0846,0,0,0,0,0,0,-4.0132,-4.0153,-4.0327,-4.0335,-4.0217,-4.0304,-4.0319,-4.036,-4.0432,-4.0441,-4.0383,-4.038,-4.0497,-4.051,-4.0523,-4.0641,-4.056,-4.0567,-4.0572,-4.084,-4.0843,-4.0847,0,0,0,0,0,0,-4.0126,-4.0147,-4.0322,-4.0244,-4.0266,-4.0311,-4.0358,-4.0364,-4.0395,-4.0445,-4.0452,-4.0406,-4.0496,-4.0512,-4.0601,-4.0645,-4.0571,-4.0577,-4.0836,-4.0841,-4.0845,-4.0877,0,0,0,0,0,0,-4.012,-4.0145,-4.0183,-4.0245,-4.0271,-4.0399,-4.0361,-4.0368,-4.0408,-4.0405,-4.0468,-4.0476,-4.0495,-4.059,-4.0608,-4.0653,-4.0583,-4.0833,-4.0838,-4.0844,-4.0872,-4.0882,-4.0891,0,0,0,0,0,-4.0111,-4.0186,-4.0184,-4.0205,-4.0318,-4.0402,-4.0416,-4.0436,-4.0411,-4.0449,-4.0481,-4.0474,-4.0637,-4.0599,-4.062,-4.0668,-4.083,-4.0837,-4.0843,-4.0868,-4.088,-4.089,0,0,0,0,0,0,-4.0127,-4.0195,-4.0193,-4.0291,-4.0341,-4.0401,-4.0449,-4.0448,-4.0506,-4.0501,-4.0523,-4.0537,-4.0627,-4.0656,-4.0613,-4.0765,-4.073,-4.0741,-4.0742,-4.0754,-4.0763,-4.0753,-4.0589,0,0,0,0,0,-4.0142,-4.0205,-4.026,-4.0341,-4.0366,-4.0403,-4.044,-4.0452,-4.0504,-4.0525,-4.0563,-4.0614,-4.0677,-4.0717,-4.0778,-4.0877,-4.0891,-4.092,-4.0929,-4.0937,-4.0945,-4.1,-4.1014,-4.0868,-4.0868,-4.0868,0,0,-4.0173,-4.0218,-4.0256,-4.0345,-4.0385,-4.0449,-4.0421,-4.049,-4.0537,-4.0535,-4.0621,-4.0652,-4.071,-4.0805,-4.0848,-4.0832,-4.0989,-4.0945,-4.095,-4.0955,-4.1009,-4.1022,-4.1035,-4.0873,-4.0872,-4.0871,0,0,-4.0263,-4.0303,-4.0375,-4.0416,-4.0477,-4.0501,-4.0519,-4.0579,-4.0599,-4.0687,-4.0686,-4.0744,-4.0851,-4.0892,-4.0927,-4.1035,-4.103,-4.1054,-4.11,-4.1154,-4.1165,-4.1175,-4.1213,-4.1226,-4.1063,-4.1063,-4.1063,0,-4.0294,-4.0391,-4.0412,-4.0482,-4.0521,-4.0523,-4.0596,-4.0634,-4.0712,-4.0739,-4.072,-4.0855,-4.0894,-4.0999,-4.1025,-4.1054,-4.1074,-4.1046,-4.1162,-4.1172,-4.1182,-4.1218,-4.1233,-4.1065,-4.1065,-4.1064,-4.1064,0,-4.0425,-4.0493,-4.0543,-4.0619,-4.0664,-4.0735,-4.0767,-4.081,-4.0818,-4.0844,-4.0934,-4.0981,-4.1051,-4.1077,-4.1085,-4.1183,-4.1171,-4.1157,-4.1122,-4.1198,-4.1232,-4.1246,-4.1068,-4.1068,-4.1067,-4.1066,0,0,-4.0527,-4.0614,-4.0632,-4.0667,-4.0735,-4.0787,-4.0858,-4.0928,-4.0964,-4.1018,-4.1078,-4.117,-4.1158,-4.1197,-4.121,-4.1258,-4.1339,-4.1238,-4.1239,-4.1254,-4.1449,-4.1459,-4.1475,-4.1337,-4.134,-4.1342,-4.1444,0,-4.0623,-4.0749,-4.0771,-4.0882,-4.0944,-4.0948,-4.101,-4.1058,-4.1085,-4.1142,-4.1172,-4.1236,-4.1215,-4.1239,-4.1286,-4.1319,-4.1378,-4.1312,-4.1393,-4.1395,-4.1377,-4.1493,-4.1503,-4.1597,-4.1458,-4.146,-4.1462,0,-4.0751,-4.0809,-4.0926,-4.0986,-4.1013,-4.1069,-4.1134,-4.1189,-4.1244,-4.126,-4.1306,-4.1314,-4.1388,-4.1351,-4.1453,-4.1408,-4.1442,-4.1464,-4.1468,-4.1475,-4.1432,-4.1502,-4.1627,-4.1641,-4.1483,-4.1482,-4.148,0,-4.0813,-4.092,-4.1004,-4.1033,-4.1106,-4.1145,-4.1177,-4.123,-4.127,-4.1328,-4.1354,-4.142,-4.1455,-4.1505,-4.1531,-4.1501,-4.1631,-4.1596,-4.1646,-4.1646,-4.1672,-4.167,-4.1804,-4.1696,-4.1696,-4.1696,-4.1696,0,-4.0917,-4.0988,-4.1032,-4.1084,-4.1164,-4.1189,-4.1267,-4.1298,-4.1346,-4.1403,-4.1411,-4.1464,-4.1495,-4.1554,-4.1574,-4.1655,-4.1672,-4.1687,-4.1691,-4.1686,-4.1683,-4.1707,-4.1701,-4.17,-4.1699,-4.1698,-4.1697,0,-4.0999,-4.1031,-4.1123,-4.1184,-4.1202,-4.1258,-4.1311,-4.1361,-4.1388,-4.1461,-4.148,-4.1523,-4.1592,-4.1623,-4.1708,-4.1722,-4.1814,-4.1814,-4.1796,-4.1797,-4.1845,-4.184,-4.1998,-4.202,-4.1899,-4.19,-4.1901,0,-4.1063,-4.1118,-4.1185,-4.1225,-4.1258,-4.1321,-4.1363,-4.139,-4.1433,-4.1501,-4.1543,-4.1612,-4.1669,-4.178,-4.1818,-4.1884,-4.1885,-4.1936,-4.1895,-4.1887,-4.1885,-4.1881,-4.1886,-4.1943,-4.1944,-4.1945,-4.1946,0,-4.1172,-4.1186,-4.1246,-4.1312,-4.1361,-4.1414,-4.1466,-4.1498,-4.1533,-4.1581,-4.1652,-4.1697,-4.1784,-4.1853,-4.1921,-4.1954,-4.1956,-4.1959,-4.1974,-4.1968,-4.1955,-4.1962,-4.1815,-4.1955,-4.1954,-4.1953,-4.1953,-4.1952,-4.1247,-4.1296,-4.1352,-4.1418,-4.146,-4.1509,-4.1559,-4.1593,-4.1653,-4.1727,-4.1739,-4.1815,-4.187,-4.1961,-4.1997,-4.2057,-4.2044,-4.2066,-4.2071,-4.2076,-4.2079,-4.1946,-4.2069,-4.2069,-4.2069,-4.2069,-4.2069,0,-4.1357,-4.1393,-4.1454,-4.1527,-4.1579,-4.1577,-4.1635,-4.1679,-4.1746,-4.1797,-4.1853,-4.1935,-4.2002,-4.2047,-4.2115,-4.2154,-4.2157,-4.2171,-4.2168,-4.2175,-4.2086,-4.2066,-4.2168,-4.2168,-4.2168,-4.2168,-4.2168,-4.2167,-4.142,-4.1503,-4.1523,-4.1627,-4.1663,-4.1737,-4.1771,-4.1816,-4.1857,-4.1948,-4.2004,-4.2033,-4.2081,-4.2153,-4.2215,-4.2226,-4.2251,-4.2266,-4.2276,-4.2192,-4.2181,-4.2171,-4.2153,-4.2271,-4.2271,-4.236,-4.2361,-4.2362]},{"header":{"parameterUnit":"m.s-1","parameterCategory":1,"la1":30.2991,"la2":30.254,"lo1":-89.0895,"lo2":-89.0444,"dy":0.0017,"dx":0.0017,"nx":28,"ny":28,"refTime":"2025-04-17T09:00:00:Z","depth":0,"parameterNumber":3,"parameterNumberName":"V-component_of_WINDS"},"data":[0,0,0,0,0,0,0,0,0,0,0,0,0,0,0,0,0,0,0,0,0,0,0,0,0,0,0,0,0,0,0,0,0,0,0,0,0,0,0,0,0,0,0,0,0,0,0,0,0,0,0,0,0,0,0,0,0,0,4.7477,4.7477,0,4.7511,4.7511,4.7512,4.748,4.7478,4.7477,4.7476,4.7508,4.751,4.7512,0,0,0,0,0,0,0,0,0,0,0,0,0,4.7384,4.7385,4.7477,4.7477,4.7478,4.7511,4.7511,4.7512,4.748,4.7478,4.7477,4.7475,4.7507,4.751,4.7512,0,0,0,0,0,0,0,0,0,0,0,0,0,4.7421,4.7386,4.7477,4.7466,4.7465,4.7511,4.7511,4.7512,4.748,4.7478,4.7476,4.7475,4.7506,4.7509,4.7512,4.7569,0,0,4.7522,4.7523,0,0,0,0,0,0,0,0,4.7419,4.7425,4.7467,4.7467,4.7466,4.7489,4.749,4.7531,4.7481,4.7475,4.7476,4.7474,4.7503,4.7506,4.7517,4.7571,4.7572,4.7522,4.7524,4.7525,4.7526,0,0,0,0,0,0,0,4.7417,4.7423,4.749,4.7468,4.7467,4.7459,4.7462,4.7498,4.7499,4.7475,4.7473,4.7477,4.7502,4.7514,4.7517,4.7573,4.7522,4.7525,4.7526,4.7528,4.7677,4.7679,0,0,0,0,0,0,4.7416,4.7421,4.7489,4.7491,4.7438,4.7462,4.7466,4.7484,4.7499,4.7499,4.7479,4.7476,4.751,4.7514,4.7518,4.7587,4.7525,4.7528,4.753,4.7675,4.7678,4.768,0,0,0,0,0,0,4.7414,4.7422,4.7488,4.7456,4.7464,4.7466,4.7486,4.7485,4.7497,4.7502,4.7501,4.749,4.7508,4.7514,4.7557,4.7587,4.7529,4.7532,4.7672,4.7676,4.7679,4.7724,0,0,0,0,0,0,4.7411,4.7421,4.7443,4.7457,4.7465,4.7527,4.7488,4.7487,4.7502,4.7499,4.7512,4.7513,4.7507,4.7553,4.7561,4.759,4.7534,4.767,4.7674,4.7678,4.772,4.7728,4.7735,0,0,0,0,0,4.7408,4.7453,4.7444,4.7453,4.7493,4.7529,4.7534,4.7527,4.7505,4.7527,4.753,4.7512,4.7583,4.7558,4.7566,4.7597,4.7668,4.7673,4.7677,4.7716,4.7726,4.7735,0,0,0,0,0,0,4.7442,4.7455,4.7445,4.7496,4.7512,4.7523,4.755,4.7538,4.7559,4.7555,4.7545,4.7548,4.7595,4.76,4.7572,4.7654,4.7622,4.7628,4.7648,4.7658,4.7666,4.7663,4.7537,0,0,0,0,0,4.7456,4.7484,4.7494,4.7538,4.7547,4.7548,4.7563,4.7557,4.7572,4.7578,4.7585,4.76,4.7625,4.7642,4.7666,4.7721,4.7724,4.7746,4.7754,4.7761,4.7766,4.7797,4.7807,4.7696,4.7696,4.7696,0,0,4.7483,4.7494,4.7513,4.7546,4.7557,4.7587,4.7553,4.7586,4.7608,4.7583,4.7625,4.763,4.7646,4.7696,4.7718,4.7702,4.7798,4.7767,4.7772,4.7774,4.7803,4.7814,4.7823,4.7699,4.7698,4.7698,0,0,4.755,4.7561,4.76,4.7613,4.7631,4.7632,4.7641,4.7655,4.7658,4.7701,4.7683,4.7709,4.7753,4.7766,4.7778,4.7853,4.7837,4.7861,4.7902,4.7931,4.794,4.7948,4.7975,4.7985,4.7866,4.7867,4.7867,0,4.7582,4.7627,4.7621,4.7656,4.7671,4.7652,4.7691,4.7704,4.7728,4.7739,4.7721,4.7778,4.7787,4.784,4.7859,4.7869,4.788,4.7858,4.794,4.7947,4.7954,4.798,4.799,4.7869,4.7869,4.7869,4.7868,0,4.7666,4.7698,4.7727,4.7753,4.7772,4.7808,4.7808,4.7828,4.7821,4.7824,4.7868,4.7879,4.7905,4.7918,4.791,4.797,4.796,4.7941,4.7908,4.7968,4.7992,4.8001,4.7873,4.7872,4.7871,4.7871,0,0,4.7752,4.7777,4.7788,4.78,4.7821,4.7845,4.7881,4.7908,4.7926,4.7944,4.7974,4.8014,4.7997,4.8011,4.8006,4.8032,4.8091,4.801,4.801,4.8025,4.8159,4.8172,4.8184,4.8082,4.8083,4.8085,4.8157,0,4.782,4.7884,4.7881,4.7941,4.7971,4.7954,4.7986,4.8002,4.8006,4.8032,4.8036,4.8064,4.804,4.8048,4.8074,4.8079,4.8118,4.8073,4.8109,4.8111,4.8105,4.8196,4.821,4.8278,4.8167,4.8168,4.8169,0,4.7906,4.793,4.7993,4.8011,4.8023,4.8052,4.8078,4.8102,4.812,4.8121,4.8139,4.8129,4.8166,4.8134,4.8185,4.8155,4.817,4.8175,4.8177,4.818,4.8143,4.8201,4.8299,4.8309,4.8184,4.8183,4.8182,0,4.7963,4.801,4.8055,4.8066,4.8088,4.8109,4.8118,4.8135,4.8152,4.8175,4.8186,4.8212,4.8226,4.8247,4.8245,4.8221,4.8297,4.8264,4.8299,4.8299,4.8314,4.8313,4.8416,4.8325,4.8325,4.8325,4.8324,0,4.8038,4.8078,4.8081,4.8108,4.8153,4.8149,4.8193,4.8201,4.8216,4.8244,4.8232,4.8258,4.8255,4.8282,4.8281,4.8323,4.833,4.8332,4.8331,4.8333,4.8332,4.8341,4.8336,4.8327,4.8327,4.8326,4.8326,0,4.8109,4.8113,4.816,4.8178,4.8183,4.8215,4.823,4.8256,4.826,4.8296,4.8305,4.8311,4.8342,4.8343,4.8378,4.8377,4.843,4.8424,4.8424,4.8423,4.8458,4.8454,4.8569,4.8585,4.8484,4.8485,4.8486,0,4.8156,4.8186,4.8208,4.8227,4.8239,4.8269,4.8287,4.8286,4.8305,4.833,4.8353,4.8384,4.8408,4.8459,4.8466,4.8493,4.8488,4.8526,4.8491,4.8493,4.8488,4.8486,4.8489,4.8533,4.8534,4.8535,4.8535,0,4.824,4.8241,4.8268,4.8297,4.832,4.8342,4.8363,4.8379,4.838,4.8403,4.8435,4.8455,4.8492,4.8523,4.855,4.8559,4.8548,4.8547,4.8556,4.8558,4.8557,4.8558,4.8442,4.8544,4.8543,4.8542,4.8542,4.8541,4.83,4.8327,4.8347,4.8379,4.8395,4.8415,4.8441,4.8449,4.8477,4.8508,4.8506,4.8542,4.8561,4.8597,4.8609,4.8637,4.8624,4.8637,4.8641,4.8644,4.8648,4.8553,4.8642,4.8642,4.8642,4.8641,4.8641,0,4.8383,4.8396,4.8425,4.8456,4.8481,4.847,4.8493,4.8514,4.8547,4.8566,4.8591,4.863,4.866,4.867,4.87,4.8721,4.8716,4.8728,4.8726,4.8729,4.8658,4.8647,4.8732,4.8732,4.8732,4.8732,4.8732,4.8732,4.843,4.8475,4.8479,4.8532,4.8545,4.8582,4.8596,4.8615,4.863,4.8674,4.87,4.8707,4.8723,4.8754,4.8781,4.8784,4.8795,4.881,4.881,4.8743,4.8734,4.8725,4.8715,4.8812,4.8812,4.8878,4.8879,4.8879]}]]